sat.trackr.live / text

‹ back to catalog

SITRO-AIS 48

NORAD 61771 · 2024-199AN

PAYLOAD ACTIVE UNKNOWN

§ Identity

Operator
Country
CIS
Launch date
2024-11-04
Launch site
VOSTO
Launch vehicle
Mass (kg)
RCS (m²)

External: N2YO · Heavens-Above · Gunter

§ Orbital elements

Epoch: 2026-05-25T03:41:36.642912Z

Period
92.56 min
Inclination
97.2969°
Eccentricity
0.0008093
Mean motion
15.55805368 rev/d
Perigee alt
394.3 km
Apogee alt
405.3 km
Semi-major
6,777.9 km
B*
6.1714e-4
RAAN
20.5328°
Arg perigee
31.6838°
Mean anomaly
328.4903°
Rev number
13,084

§ Raw data

SITRO-AIS 481 61771U 24199AN  26145.15389633  .00042731  00000+0  61714-3 0  99912 61771  97.2969  20.5328 0008093  31.6838 328.4903 15.55805368130846

JSON: /api/v1/satellites/61771 · /tle

For live sub-satellite position, see the globe view (requires WebGL).

§ Visibility from observer

Set your observer location to see the next 7 days of passes ≥ 10°. The values pass through the URL so the page stays shareable.

No JS? Fill the form by hand. The geolocation button needs JavaScript.

§ Radio — SatNOGS DB

ModeDescriptionDownlinkUplink
GMSK USP Mode U - GMSK2k4 - USP 401.245 MHz

1 transmitter · refreshed weekly from db.satnogs.org